Flag for Nigeria Weather past 2 weeks in Port Harcourt, Nigeria

Now
81 °F

Passing clouds.


Feels Like: 86 °F
Forecast: 76 / 98 °F
Wind: No wind

Location: Malabo/Fernando Poo

Current Time: Feb 27, 2015 at 10:56:26 PM

Latest Report: Feb 27, 2015 at 10:00 PM


Visibility: 5 mi

Pressure: 29.92 "Hg

Humidity: 84%

Dew point: 75 °F

Location of Port HarcourtLocation

Historic Weather in Port Harcourt — Graph

°F

Port Harcourt temperature yesterday

Maximum temperature yesterday: 86 °F (at 3:00 PM)
Minimum temperature yesterday: 72 °F (at 7:00 AM)
Average temperature yesterday: 81 °F

Past Weeks' High & Low Weather Summary

 TemperatureHumidityPressure
High90 °F (Feb 13, 1:00 PM)100% (Feb 18, 11:00 PM)29.98 "Hg (Feb 18, 11:00 PM)
Low72 °F (Feb 19, 4:00 AM)59% (Feb 19, 10:00 AM)29.74 "Hg (Feb 17, 6:00 PM)
Average82 °F81%29.85 "Hg
* Reported Feb 12 10:00 PM — Feb 27 9:00 PM, Port Harcourt, Weather by CustomWeather, © 2015

Note: Actual official high and low records may vary slightly from our data, if they occured in-between our weather recording intervals... More about our weather records

Advertising

Port Harcourt weather history for previous 24 hours

 ConditionsComfort  
Time TempWeatherWind HumidityBarometerVisibility
9:00 PM
Fri, Feb 27
81 °FPassing clouds.No wind84%29.92 "Hg5 mi
8:00 PM82 °FPassing clouds.3 mph79%29.89 "Hg5 mi
1:00 PM86 °FScattered clouds.6 mph70%29.86 "HgN/A
12:00 PM84 °FScattered clouds.5 mph79%29.86 "HgN/A
11:00 AM81 °FScattered clouds.5 mph84%29.89 "Hg5 mi
10:00 AM81 °FPassing clouds.6 mph84%29.92 "Hg5 mi
9:00 AM79 °FPassing clouds.No wind89%29.89 "Hg5 mi
8:00 AM75 °FPassing clouds.No wind94%29.89 "Hg5 mi
7:00 AM75 °FThunderstorms. More clouds than sun.No wind89%29.83 "Hg5 mi
6:00 AM75 °FThunderstorms. Partly cloudy.No wind89%29.83 "Hg5 mi
5:00 AM75 °FThunderstorms. Partly cloudy.No wind89%29.83 "Hg5 mi
4:00 AM75 °FThunderstorms. Partly cloudy.12 mph94%29.86 "Hg5 mi
3:00 AM77 °FThunderstorms. Partly cloudy.12 mph94%29.86 "Hg5 mi
2:00 AM77 °FThunderstorms. Partly cloudy.5 mph89%29.86 "HgN/A
1:00 AM77 °FThunderstorms. Partly cloudy.No wind89%29.86 "Hg5 mi
12:00 AM77 °FThunderstorms. Partly cloudy.No wind89%29.86 "Hg5 mi
11:00 PM
Thu, Feb 26
77 °FPassing clouds.No wind89%29.83 "HgN/A
Weather by CustomWeather, © 2015

See weather overviewHow to use our weather pages